[[{"header":{"parameterUnit":"m.s-1","parameterCategory":1,"la1":30.2992,"la2":30.254,"lo1":-89.0895,"lo2":-89.0443,"dy":0.0025,"dx":0.0025,"nx":19,"ny":19,"refTime":"2026-04-18T09:00:00:Z","depth":0,"parameterNumber":2,"parameterNumberName":"U-component_of_WINDS"},"data":[0,0,0,-0.0716,-0.0716,-0.071,-0.071,-0.0708,-0.0708,0,0,0,0,0,0,0,0,0,0,0,-0.0721,-0.0721,-0.0716,-0.0716,-0.071,-0.071,-0.0708,-0.0708,0,0,0,0,0,0,0,0,0,0,0,-0.0721,-0.0721,-0.0721,-0.0716,-0.071,-0.071,-0.0708,-0.0711,0,0,0,0,0,0,0,0,0,0,-0.0715,-0.0723,-0.0721,-0.0721,-0.0716,-0.071,-0.071,-0.0711,-0.071,-0.0713,0,-0.0716,0,-0.0712,-0.0709,-0.0709,0,0,0,-0.0713,-0.0723,-0.0719,-0.0721,-0.0716,-0.071,-0.0712,-0.071,-0.071,-0.0713,-0.0716,-0.0716,-0.0712,-0.0709,-0.0709,-0.0733,-0.0733,0,0,-0.0714,-0.0721,-0.0719,-0.0719,-0.072,-0.0712,-0.0712,-0.071,-0.0714,-0.0716,-0.0716,-0.0712,-0.0709,-0.0709,-0.0733,-0.0733,0,0,0,-0.0716,-0.0722,-0.0717,-0.0719,-0.0717,-0.0712,-0.0712,-0.0714,-0.0712,-0.0716,-0.0712,-0.0709,-0.0709,-0.0733,-0.0733,-0.0752,0,0,0,-0.0716,-0.0723,-0.0717,-0.0722,-0.0718,-0.0716,-0.0716,-0.0712,-0.0712,-0.0712,-0.0709,-0.0709,-0.0732,-0.0733,-0.0751,-0.076,0,0,0,-0.072,-0.0723,-0.0724,-0.0723,-0.072,-0.0716,-0.0713,-0.0712,-0.071,-0.0709,-0.0709,-0.0732,-0.0733,-0.075,-0.0758,-0.0769,0,0,0,-0.0726,-0.0741,-0.0724,-0.0739,-0.0721,-0.0728,-0.0713,-0.0718,-0.0719,-0.0709,-0.0732,-0.0733,-0.075,-0.0757,-0.0768,-0.0779,-0.0784,0,0,-0.0749,-0.0744,-0.0752,-0.0737,-0.0749,-0.0728,-0.0742,-0.0736,-0.0729,-0.0732,-0.0733,-0.0751,-0.0758,-0.0768,-0.0812,-0.0816,0,0,0,-0.0761,-0.0767,-0.0769,-0.077,-0.0766,-0.0763,-0.0753,-0.0751,-0.0754,-0.0732,-0.0758,-0.0761,-0.0767,-0.0772,-0.0776,-0.0781,-0.0736,-0.0735,-0.0735,-0.0805,-0.0795,-0.0808,-0.0797,-0.0799,-0.0789,-0.079,-0.0785,-0.0774,-0.0781,-0.0782,-0.0809,-0.0815,-0.0818,-0.0823,-0.0787,-0.0787,-0.0787,-0.0787,-0.0837,-0.0844,-0.083,-0.0837,-0.0827,-0.0833,-0.0825,-0.0817,-0.0821,-0.0808,-0.0812,-0.0798,-0.0823,-0.0827,-0.0788,-0.0788,-0.0788,-0.0788,-0.0788,-0.0864,-0.0866,-0.0863,-0.0864,-0.0867,-0.0856,-0.0861,-0.0851,-0.0842,-0.0847,-0.0847,-0.0846,-0.0845,-0.0847,-0.0847,-0.0848,-0.0848,-0.0848,-0.0848,-0.0893,-0.0889,-0.0895,-0.0892,-0.0892,-0.0891,-0.0882,-0.0881,-0.0879,-0.0871,-0.0871,-0.086,-0.0828,-0.082,-0.0849,-0.0849,-0.0849,-0.0849,-0.0849,-0.093,-0.092,-0.0929,-0.0929,-0.0925,-0.0928,-0.0916,-0.0916,-0.0914,-0.0917,-0.0906,-0.0883,-0.0877,-0.0874,-0.0867,-0.0907,-0.0907,-0.0907,-0.0907,-0.0953,-0.0949,-0.0956,-0.0956,-0.0956,-0.0946,-0.0956,-0.095,-0.0941,-0.094,-0.0933,-0.0923,-0.092,-0.0916,-0.0912,-0.0906,-0.0955,-0.0955,-0.0955,-0.0975,-0.0971,-0.0981,-0.0973,-0.0969,-0.0966,-0.0976,-0.0977,-0.0966,-0.0956,-0.0938,-0.0936,-0.0921,-0.0916,-0.0906,-0.09,-0.0889,0,0]},{"header":{"parameterUnit":"m.s-1","parameterCategory":1,"la1":30.2992,"la2":30.254,"lo1":-89.0895,"lo2":-89.0443,"dy":0.0025,"dx":0.0025,"nx":19,"ny":19,"refTime":"2026-04-18T09:00:00:Z","depth":0,"parameterNumber":3,"parameterNumberName":"V-component_of_WINDS"},"data":[0,0,0,3.3969,3.3968,3.3926,3.3926,3.388,3.3879,0,0,0,0,0,0,0,0,0,0,0,3.3987,3.3987,3.3969,3.3968,3.3926,3.3926,3.388,3.3879,0,0,0,0,0,0,0,0,0,0,0,3.3987,3.3987,3.3987,3.3968,3.3926,3.3926,3.388,3.3908,0,0,0,0,0,0,0,0,0,0,3.3947,3.397,3.3987,3.3987,3.3968,3.3927,3.3926,3.3909,3.3906,3.3902,0,3.3901,0,3.389,3.3877,3.3877,0,0,0,3.3963,3.3973,3.3957,3.3987,3.3967,3.3927,3.3944,3.3908,3.3904,3.3898,3.39,3.3898,3.3889,3.3876,3.3876,3.3872,3.3872,0,0,3.3965,3.3982,3.3959,3.3955,3.3964,3.3945,3.3943,3.3905,3.3908,3.39,3.3897,3.3888,3.3876,3.3876,3.3872,3.3872,0,0,0,3.3975,3.3984,3.3968,3.3957,3.3949,3.3944,3.3941,3.391,3.3904,3.3897,3.3888,3.3876,3.3876,3.3872,3.3872,3.39,0,0,0,3.3976,3.399,3.397,3.3979,3.395,3.3929,3.3947,3.3906,3.3902,3.3888,3.3876,3.3875,3.3871,3.3872,3.3899,3.391,0,0,0,3.3988,3.3991,3.3987,3.398,3.3964,3.393,3.3921,3.3905,3.3896,3.3877,3.3875,3.3871,3.3872,3.3898,3.3908,3.3914,0,0,0,3.4004,3.4011,3.3988,3.3993,3.3964,3.3948,3.3921,3.3908,3.3894,3.3876,3.3871,3.3872,3.3897,3.3907,3.3913,3.3923,3.3929,0,0,3.4022,3.4014,3.4016,3.3994,3.3987,3.3953,3.3949,3.392,3.3901,3.3882,3.3882,3.3899,3.3908,3.3914,3.3955,3.396,0,0,0,3.4027,3.4028,3.4023,3.4012,3.3991,3.3974,3.3944,3.3933,3.3917,3.3896,3.3903,3.3907,3.391,3.3914,3.3918,3.3919,3.3875,3.3874,3.3874,3.4076,3.4055,3.4056,3.4029,3.4019,3.3989,3.3978,3.3958,3.3937,3.3939,3.3933,3.3961,3.3966,3.3969,3.3971,3.3936,3.3937,3.3937,3.3937,3.4102,3.41,3.4075,3.4067,3.4043,3.4035,3.4006,3.3992,3.3981,3.3963,3.3964,3.3947,3.3975,3.3975,3.3939,3.3938,3.3938,3.3938,3.3938,3.4131,3.4127,3.4115,3.4099,3.4088,3.406,3.4051,3.4029,3.4008,3.4009,3.4001,3.4,3.3997,3.4007,3.4007,3.4007,3.4007,3.4008,3.4008,3.4167,3.4153,3.4149,3.4129,3.412,3.4105,3.4076,3.4065,3.4048,3.4032,3.4032,3.4011,3.3982,3.3975,3.4009,3.4009,3.4009,3.4008,3.4008,3.4199,3.4189,3.4183,3.4175,3.415,3.4141,3.4114,3.4095,3.4083,3.4079,3.4058,3.404,3.4029,3.4026,3.402,3.4063,3.4063,3.4063,3.4063,3.4224,3.4218,3.4208,3.4195,3.418,3.4156,3.4149,3.4126,3.41,3.4092,3.4082,3.4073,3.407,3.406,3.4056,3.405,3.4101,3.4101,3.4101,3.4243,3.4235,3.4234,3.4211,3.419,3.4173,3.4165,3.4151,3.4119,3.4102,3.4084,3.4083,3.4067,3.4063,3.4044,3.4038,3.4027,0,0]}]]